Simultaneous Nadir Overpasses (SNOs) Predictions

Prediction of SNOs between LANDSAT-8 and METOP-A Satellite Orbit:

Table of predicted SNOs for the next 14.0 days since TLE Epoch: 1/12/2019
Index Date (LANDSAT-8) Time (LANDSAT-8) Lat,Lon (LANDSAT-8) SZA (LANDSAT-8 ) Date (METOP-A) Time (METOP-A) Lat,Lon (METOP-A) SZA (METOP-A ) Distance(km) Time Diff (sec)
1 01/12/2019 23:22:47 -81.43, 54.47 74.84 01/12/2019 23:22:09 -81.43, 54.52 74.85 1.00 38
2 01/13/2019 00:12:13 81.43,-137.82 105.16 01/13/2019 00:12:49 81.43,-137.98 105.17 2.63 36
3 01/15/2019 18:57:01 -81.44, 121.21 75.32 01/15/2019 18:56:23 -81.43, 121.21 75.34 0.84 38
4 01/15/2019 19:46:27 81.44, -71.11 104.68 01/15/2019 19:47:03 81.44, -71.29 104.67 3.26 36
5 01/18/2019 14:31:15 -81.44,-172.46 75.91 01/18/2019 14:30:37 -81.43,-172.51 75.93 0.92 38
6 01/18/2019 15:20:41 81.44, -4.80 104.09 01/18/2019 15:21:16 81.44, -4.62 104.13 3.03 35
7 01/21/2019 10:05:30 -81.43,-106.15 76.54 01/21/2019 10:04:52 -81.43,-106.23 76.56 1.44 38
8 01/21/2019 10:54:56 81.43, 61.48 103.45 01/21/2019 10:55:31 81.44, 61.65 103.49 2.84 35
9 01/24/2019 05:39:44 -81.44, -39.47 77.17 01/24/2019 05:39:06 -81.43, -39.57 77.20 1.90 38




NCC Satellite Simultaneous Nadir Overpasses (SNOs) Prediction Service
